| time (UTC) | temp F | wind direction | speed MPH | gust MPH | rain 1hr in | rain 24hr in | rain mn in | humidity % | barometer mb |
| 20260508005849 | 73 | 241 | 3.0 | 5.0 | 0.00 | 0.00 | 0.00 | 31 | 1018.0 |
| 20260508005345 | 74 | 239 | 0.0 | 3.0 | 0.00 | 0.00 | 0.00 | 32 | 1018.0 |
| 20260508004839 | 74 | 277 | 1.0 | 3.0 | 0.00 | 0.00 | 0.00 | 32 | 1018.0 |
| 20260508004336 | 74 | 199 | 2.0 | 5.0 | 0.00 | 0.00 | 0.00 | 30 | 1018.2 |
| 20260508003901 | 74 | 263 | 2.0 | 5.0 | 0.00 | 0.00 | 0.00 | 31 | 1018.3 |
| 20260508003338 | 74 | 266 | 0.0 | 3.0 | 0.00 | 0.00 | 0.00 | 32 | 1018.3 |
| 20260508002849 | 74 | 231 | 1.0 | 3.0 | 0.00 | 0.00 | 0.00 | 31 | 1018.3 |
| 20260508002357 | 74 | 304 | 0.0 | 8.0 | 0.00 | 0.00 | 0.00 | 33 | 1018.3 |
| 20260508001852 | 75 | 206 | 3.0 | 8.0 | 0.00 | 0.00 | 0.00 | 32 | 1018.4 |
| 20260508001350 | 74 | 226 | 0.0 | 3.0 | 0.00 | 0.00 | 0.00 | 37 | 1018.4 |
| 20260508000848 | 74 | 224 | 0.0 | 2.0 | 0.00 | 0.00 | 0.00 | 37 | 1018.5 |
| 20260508000345 | 73 | 248 | 1.0 | 3.0 | 0.00 | 0.00 | 0.00 | 38 | 1018.5 |
| 20260507235901 | 73 | 46 | 1.0 | 4.0 | 0.00 | 0.00 | 0.00 | 35 | 1018.6 |
| 20260507235338 | 73 | 280 | 1.0 | 5.0 | 0.00 | 0.00 | 0.00 | 33 | 1018.6 |
| 20260507234836 | 72 | 245 | 2.0 | 4.0 | 0.00 | 0.00 | 0.00 | 39 | 1018.6 |
| 20260507234334 | 73 | 82 | 2.0 | 4.0 | 0.00 | 0.00 | 0.00 | 37 | 1018.7 |
| 20260507233855 | 72 | 210 | 0.0 | 6.0 | 0.00 | 0.00 | 0.00 | 39 | 1018.8 |
| 20260507233352 | 72 | 268 | 2.0 | 6.0 | 0.00 | 0.00 | 0.00 | 38 | 1018.9 |
| 20260507232849 | 73 | 253 | 4.0 | 6.0 | 0.00 | 0.00 | 0.00 | 39 | 1018.9 |
| 20260507232347 | 73 | 82 | 0.0 | 6.0 | 0.00 | 0.00 | 0.00 | 38 | 1018.9 |
| 20260507231853 | 73 | 224 | 2.0 | 6.0 | 0.00 | 0.00 | 0.00 | 40 | 1019.0 |
| 20260507231349 | 73 | 255 | 2.0 | 6.0 | 0.00 | 0.00 | 0.00 | 39 | 1019.0 |
| 20260507230846 | 74 | 246 | 2.0 | 6.0 | 0.00 | 0.00 | 0.00 | 38 | 1019.0 |
| 20260507230340 | 73 | 250 | 1.0 | 4.0 | 0.00 | 0.00 | 0.00 | 39 | 1019.1 |
| 20260507225838 | 74 | 26 | 1.0 | 3.0 | 0.00 | 0.00 | 0.00 | 37 | 1019.2 |
| 20260507225357 | 73 | 86 | 0.0 | 5.0 | 0.00 | 0.00 | 0.00 | 39 | 1019.2 |
| 20260507224853 | 72 | 311 | 1.0 | 5.0 | 0.00 | 0.00 | 0.00 | 40 | 1019.3 |
| 20260507224350 | 73 | 33 | 1.0 | 3.0 | 0.00 | 0.00 | 0.00 | 39 | 1019.3 |
| 20260507223907 | 73 | 214 | 0.0 | 3.0 | 0.00 | 0.00 | 0.00 | 41 | 1019.4 |
| 20260507223344 | 72 | 220 | 1.0 | 4.0 | 0.00 | 0.00 | 0.00 | 40 | 1019.3 |
| 20260507222840 | 72 | 266 | 1.0 | 4.0 | 0.00 | 0.00 | 0.00 | 43 | 1019.5 |
| 20260507222348 | 72 | 279 | 1.0 | 4.0 | 0.00 | 0.00 | 0.00 | 41 | 1019.4 |
| 20260507221840 | 71 | 271 | 0.0 | 5.0 | 0.00 | 0.00 | 0.00 | 45 | 1019.4 |
| 20260507221337 | 71 | 233 | 2.0 | 5.0 | 0.00 | 0.00 | 0.00 | 42 | 1019.5 |
| 20260507220830 | 71 | 218 | 2.0 | 4.0 | 0.00 | 0.00 | 0.00 | 43 | 1019.6 |
| 20260507220346 | 71 | 86 | 1.0 | 5.0 | 0.00 | 0.00 | 0.00 | 40 | 1019.6 |
| 20260507215912 | 72 | 265 | 1.0 | 5.0 | 0.00 | 0.00 | 0.00 | 41 | 1019.6 |
| 20260507215409 | 71 | 234 | 0.0 | 3.0 | 0.00 | 0.00 | 0.00 | 44 | 1019.9 |
| 20260507214845 | 71 | 114 | 1.0 | 4.0 | 0.00 | 0.00 | 0.00 | 42 | 1019.9 |
| 20260507214343 | 71 | 37 | 0.0 | 3.0 | 0.00 | 0.00 | 0.00 | 43 | 1019.9 |
| 20260507213900 | 71 | 241 | 2.0 | 3.0 | 0.00 | 0.00 | 0.00 | 43 | 1020.1 |
| 20260507213358 | 71 | 278 | 1.0 | 4.0 | 0.00 | 0.00 | 0.00 | 46 | 1020.1 |
| 20260507212849 | 71 | 202 | 2.0 | 7.0 | 0.00 | 0.00 | 0.00 | 47 | 1020.1 |
| 20260507212345 | 70 | 219 | 3.0 | 7.0 | 0.00 | 0.00 | 0.00 | 45 | 1020.2 |
| 20260507211838 | 70 | 226 | 0.0 | 4.0 | 0.00 | 0.00 | 0.00 | 47 | 1020.2 |
| 20260507211357 | 69 | 215 | 1.0 | 4.0 | 0.00 | 0.00 | 0.00 | 47 | 1020.2 |
| 20260507210853 | 69 | 242 | 2.0 | 4.0 | 0.00 | 0.00 | 0.00 | 47 | 1020.3 |
| 20260507210410 | 69 | 260 | 1.0 | 7.0 | 0.00 | 0.00 | 0.00 | 47 | 1020.3 |
| 20260507205846 | 70 | 237 | 3.0 | 7.0 | 0.00 | 0.00 | 0.00 | 45 | 1020.5 |
| 20260507205413 | 70 | 262 | 2.0 | 5.0 | 0.00 | 0.00 | 0.00 | 49 | 1020.6 |
| 20260507204831 | 70 | 287 | 0.0 | 6.0 | 0.00 | 0.00 | 0.00 | 49 | 1020.6 |
| 20260507204347 | 68 | 302 | 1.0 | 6.0 | 0.00 | 0.00 | 0.00 | 51 | 1020.6 |
| 20260507203838 | 68 | 245 | 1.0 | 5.0 | 0.00 | 0.00 | 0.00 | 53 | 1020.7 |
| 20260507203336 | 68 | 89 | 2.0 | 4.0 | 0.00 | 0.00 | 0.00 | 50 | 1020.7 |
| 20260507202856 | 68 | 41 | 0.0 | 5.0 | 0.00 | 0.00 | 0.00 | 54 | 1020.8 |
| 20260507202332 | 68 | 224 | 2.0 | 5.0 | 0.00 | 0.00 | 0.00 | 55 | 1020.9 |
| 20260507201848 | 68 | 230 | 0.0 | 3.0 | 0.00 | 0.00 | 0.00 | 53 | 1020.9 |
| 20260507201346 | 66 | 239 | 1.0 | 5.0 | 0.00 | 0.00 | 0.00 | 56 | 1020.9 |
| 20260507200844 | 66 | 260 | 3.0 | 5.0 | 0.00 | 0.00 | 0.00 | 56 | 1021.0 |
| 20260507200341 | 65 | 203 | 1.0 | 4.0 | 0.00 | 0.00 | 0.00 | 55 | 1021.0 |
| 20260507195846 | 64 | 282 | 2.0 | 6.0 | 0.00 | 0.00 | 0.00 | 56 | 1021.1 |
| 20260507195341 | 64 | 221 | 2.0 | 8.0 | 0.00 | 0.00 | 0.00 | 56 | 1021.0 |
| 20260507194839 | 64 | 69 | 2.0 | 8.0 | 0.00 | 0.00 | 0.00 | 56 | 1021.2 |
| 20260507194355 | 65 | 259 | 3.0 | 6.0 | 0.00 | 0.00 | 0.00 | 55 | 1021.2 |
| 20260507193853 | 65 | 236 | 1.0 | 7.0 | 0.00 | 0.00 | 0.00 | 59 | 1021.3 |
| 20260507193332 | 65 | 252 | 5.0 | 7.0 | 0.00 | 0.00 | 0.00 | 55 | 1021.4 |
| 20260507192848 | 66 | 238 | 2.0 | 4.0 | 0.00 | 0.00 | 0.00 | 56 | 1021.4 |
| 20260507192345 | 65 | 183 | 1.0 | 6.0 | 0.00 | 0.00 | 0.00 | 56 | 1021.5 |
| 20260507191842 | 65 | 272 | 4.0 | 6.0 | 0.00 | 0.00 | 0.00 | 56 | 1021.5 |
| 20260507191348 | 65 | 230 | 1.0 | 4.0 | 0.00 | 0.00 | 0.00 | 57 | 1021.5 |
| 20260507190845 | 64 | 22 | 1.0 | 4.0 | 0.00 | 0.00 | 0.00 | 56 | 1021.6 |
| 20260507190343 | 66 | 336 | 1.0 | 3.0 | 0.00 | 0.00 | 0.00 | 57 | 1021.7 |
| 20260507185839 | 65 | 143 | 1.0 | 3.0 | 0.00 | 0.00 | 0.00 | 58 | 1021.8 |
| 20260507185353 | 64 | 276 | 1.0 | 3.0 | 0.00 | 0.00 | 0.00 | 58 | 1021.8 |
| 20260507184910 | 64 | 349 | 1.0 | 4.0 | 0.00 | 0.00 | 0.00 | 58 | 1021.9 |
| 20260507184346 | 63 | 245 | 1.0 | 4.0 | 0.00 | 0.00 | 0.00 | 60 | 1021.9 |
| 20260507183843 | 63 | 233 | 1.0 | 4.0 | 0.00 | 0.00 | 0.00 | 59 | 1021.9 |
| 20260507183350 | 62 | 73 | 1.0 | 5.0 | 0.00 | 0.00 | 0.00 | 60 | 1022.0 |
| 20260507182847 | 63 | 112 | 2.0 | 5.0 | 0.00 | 0.00 | 0.00 | 59 | 1021.9 |
| 20260507182404 | 64 | 32 | 1.0 | 4.0 | 0.00 | 0.00 | 0.00 | 58 | 1022.0 |
| 20260507181843 | 63 | 14 | 2.0 | 4.0 | 0.00 | 0.00 | 0.00 | 60 | 1022.1 |
| 20260507181340 | 62 | 287 | 1.0 | 3.0 | 0.00 | 0.00 | 0.00 | 61 | 1022.2 |
| 20260507180836 | 61 | 233 | 1.0 | 3.0 | 0.00 | 0.00 | 0.00 | 62 | 1022.3 |
| 20260507180419 | 61 | 244 | 0.0 | 6.0 | 0.00 | 0.00 | 0.00 | 64 | 1022.2 |
| 20260507175852 | 60 | 357 | 2.0 | 6.0 | 0.00 | 0.00 | 0.00 | 64 | 1022.3 |
| 20260507175350 | 61 | 92 | 2.0 | 5.0 | 0.00 | 0.00 | 0.00 | 61 | 1022.3 |
| 20260507174847 | 62 | 146 | 0.0 | 3.0 | 0.00 | 0.00 | 0.00 | 62 | 1022.4 |
| 20260507174405 | 61 | 327 | 1.0 | 3.0 | 0.00 | 0.00 | 0.00 | 65 | 1022.4 |
| 20260507173841 | 60 | 77 | 1.0 | 3.0 | 0.00 | 0.00 | 0.00 | 65 | 1022.4 |
| 20260507173342 | 59 | 4 | 1.0 | 4.0 | 0.00 | 0.00 | 0.00 | 66 | 1022.5 |
| 20260507172838 | 59 | 219 | 2.0 | 4.0 | 0.00 | 0.00 | 0.00 | 66 | 1022.4 |
| 20260507172335 | 59 | 257 | 1.0 | 3.0 | 0.00 | 0.00 | 0.00 | 65 | 1022.4 |
| 20260507171917 | 59 | 271 | 1.0 | 4.0 | 0.00 | 0.00 | 0.00 | 66 | 1022.5 |
| 20260507171352 | 58 | 108 | 0.0 | 5.0 | 0.00 | 0.00 | 0.00 | 67 | 1022.5 |
| 20260507170831 | 58 | 227 | 1.0 | 5.0 | 0.00 | 0.00 | 0.00 | 65 | 1022.5 |
| 20260507170347 | 59 | 225 | 2.0 | 5.0 | 0.00 | 0.00 | 0.00 | 66 | 1022.6 |
| 20260507165844 | 59 | 266 | 0.0 | 3.0 | 0.00 | 0.00 | 0.00 | 66 | 1022.6 |
| 20260507165349 | 58 | 268 | 1.0 | 5.0 | 0.00 | 0.00 | 0.00 | 68 | 1022.6 |
| 20260507164846 | 57 | 276 | 2.0 | 5.0 | 0.00 | 0.00 | 0.00 | 68 | 1022.7 |
| 20260507164344 | 57 | 321 | 1.0 | 3.0 | 0.00 | 0.00 | 0.00 | 68 | 1022.7 |
| 20260507163842 | 57 | 356 | 1.0 | 5.0 | 0.00 | 0.00 | 0.00 | 69 | 1022.6 |
| 20260507163339 | 57 | 267 | 3.0 | 5.0 | 0.00 | 0.00 | 0.00 | 68 | 1022.7 |
| 20260507162854 | 57 | 284 | 1.0 | 5.0 | 0.00 | 0.00 | 0.00 | 69 | 1022.7 |
| 20260507162351 | 57 | 312 | 0.0 | 5.0 | 0.00 | 0.00 | 0.00 | 68 | 1022.7 |
| 20260507161909 | 57 | 103 | 1.0 | 4.0 | 0.00 | 0.00 | 0.00 | 69 | 1022.8 |
| 20260507161343 | 55 | 207 | 0.0 | 4.0 | 0.00 | 0.00 | 0.00 | 71 | 1022.7 |
| 20260507160840 | 55 | 58 | 1.0 | 6.0 | 0.00 | 0.00 | 0.00 | 71 | 1022.7 |
| 20260507160407 | 54 | 55 | 1.0 | 8.0 | 0.00 | 0.00 | 0.00 | 71 | 1022.7 |
| 20260507155903 | 54 | 85 | 1.0 | 8.0 | 0.00 | 0.00 | 0.00 | 71 | 1022.7 |
| 20260507155349 | 54 | 69 | 1.0 | 7.0 | 0.00 | 0.00 | 0.00 | 72 | 1022.7 |
| 20260507154845 | 54 | 359 | 2.0 | 7.0 | 0.00 | 0.00 | 0.00 | 71 | 1022.7 |
| 20260507154339 | 54 | 261 | 1.0 | 4.0 | 0.00 | 0.00 | 0.00 | 73 | 1022.8 |
| 20260507153900 | 54 | 292 | 0.0 | 4.0 | 0.00 | 0.00 | 0.00 | 73 | 1022.8 |
| 20260507153337 | 53 | 344 | 1.0 | 4.0 | 0.00 | 0.00 | 0.00 | 73 | 1022.8 |
| 20260507152837 | 53 | 34 | 1.0 | 4.0 | 0.00 | 0.00 | 0.00 | 73 | 1022.9 |
| 20260507152331 | 53 | 264 | 1.0 | 4.0 | 0.00 | 0.00 | 0.00 | 73 | 1022.8 |
| 20260507151849 | 53 | 180 | 1.0 | 4.0 | 0.00 | 0.00 | 0.00 | 73 | 1022.8 |
| 20260507151346 | 53 | 267 | 0.0 | 2.0 | 0.00 | 0.00 | 0.00 | 73 | 1022.9 |
| 20260507150845 | 53 | 17 | 0.0 | 6.0 | 0.00 | 0.00 | 0.00 | 74 | 1022.8 |
| 20260507150405 | 52 | 252 | 3.0 | 6.0 | 0.00 | 0.00 | 0.00 | 73 | 1022.8 |
| 20260507145836 | 52 | 16 | 1.0 | 6.0 | 0.00 | 0.00 | 0.00 | 74 | 1022.8 |
| 20260507145335 | 52 | 81 | 2.0 | 7.0 | 0.00 | 0.00 | 0.00 | 75 | 1022.8 |
| 20260507144855 | 52 | 92 | 2.0 | 9.0 | 0.00 | 0.00 | 0.00 | 74 | 1022.8 |
| 20260507144335 | 52 | 44 | 2.0 | 9.0 | 0.00 | 0.00 | 0.00 | 74 | 1022.8 |
| 20260507143830 | 52 | 352 | 1.0 | 6.0 | 0.00 | 0.00 | 0.00 | 74 | 1022.7 |
| 20260507143417 | 52 | 86 | 3.0 | 6.0 | 0.00 | 0.00 | 0.00 | 74 | 1022.6 |
| 20260507142853 | 52 | 26 | 2.0 | 6.0 | 0.00 | 0.00 | 0.00 | 75 | 1022.6 |
| 20260507142349 | 52 | 86 | 2.0 | 6.0 | 0.00 | 0.00 | 0.00 | 75 | 1022.6 |
| 20260507141855 | 52 | 44 | 1.0 | 2.0 | 0.00 | 0.00 | 0.00 | 75 | 1022.6 |
| 20260507141407 | 52 | 98 | 0.0 | 2.0 | 0.00 | 0.00 | 0.00 | 76 | 1022.5 |
| 20260507140844 | 52 | 99 | 1.0 | 1.0 | 0.00 | 0.00 | 0.00 | 76 | 1022.5 |
| 20260507140341 | 52 | 115 | 0.0 | 3.0 | 0.00 | 0.00 | 0.00 | 76 | 1022.5 |
| 20260507135847 | 52 | 78 | 0.0 | 3.0 | 0.00 | 0.00 | 0.00 | 76 | 1022.6 |
| 20260507135344 | 52 | 216 | 0.0 | 3.0 | 0.00 | 0.00 | 0.00 | 76 | 1022.5 |
| 20260507134840 | 52 | 77 | 1.0 | 4.0 | 0.00 | 0.00 | 0.00 | 76 | 1022.5 |
| 20260507134330 | 52 | 70 | 1.0 | 4.0 | 0.00 | 0.00 | 0.00 | 76 | 1022.5 |
| 20260507133857 | 52 | 46 | 1.0 | 4.0 | 0.00 | 0.00 | 0.00 | 76 | 1022.4 |
| 20260507133352 | 52 | 71 | 2.0 | 3.0 | 0.00 | 0.00 | 0.00 | 76 | 1022.4 |
| 20260507132843 | 52 | 141 | 1.0 | 3.0 | 0.00 | 0.00 | 0.00 | 76 | 1022.4 |
| 20260507132341 | 52 | 60 | 0.0 | 2.0 | 0.00 | 0.00 | 0.00 | 77 | 1022.3 |
| 20260507131838 | 52 | 77 | 1.0 | 3.0 | 0.00 | 0.00 | 0.00 | 76 | 1022.4 |
| 20260507131341 | 52 | 93 | 1.0 | 3.0 | 0.00 | 0.00 | 0.00 | 76 | 1022.3 |
| 20260507130838 | 52 | 64 | 0.0 | 6.0 | 0.00 | 0.00 | 0.00 | 76 | 1022.4 |
| 20260507130359 | 52 | 79 | 1.0 | 6.0 | 0.00 | 0.00 | 0.00 | 76 | 1022.5 |
| 20260507125853 | 52 | 75 | 0.0 | 2.0 | 0.00 | 0.00 | 0.00 | 76 | 1022.4 |
| 20260507125351 | 52 | 124 | 0.0 | 0.0 | 0.00 | 0.00 | 0.00 | 76 | 1022.5 |
| 20260507124849 | 52 | 124 | 0.0 | 2.0 | 0.00 | 0.00 | 0.00 | 76 | 1022.4 |
| 20260507124345 | 52 | 123 | 1.0 | 4.0 | 0.00 | 0.00 | 0.00 | 76 | 1022.4 |
| 20260507123842 | 53 | 257 | 0.0 | 2.0 | 0.00 | 0.00 | 0.00 | 75 | 1022.5 |
| 20260507123335 | 53 | 38 | 0.0 | 1.0 | 0.00 | 0.00 | 0.00 | 77 | 1022.5 |
| 20260507122854 | 53 | 45 | 0.0 | 1.0 | 0.00 | 0.00 | 0.00 | 77 | 1022.4 |
| 20260507122330 | 53 | 45 | 0.0 | 4.0 | 0.00 | 0.00 | 0.00 | 76 | 1022.6 |
| 20260507121917 | 53 | 39 | 0.0 | 4.0 | 0.00 | 0.00 | 0.00 | 77 | 1022.5 |
| 20260507121353 | 53 | 41 | 2.0 | 3.0 | 0.00 | 0.00 | 0.00 | 76 | 1022.4 |
| 20260507120849 | 53 | 86 | 1.0 | 3.0 | 0.00 | 0.00 | 0.00 | 77 | 1022.5 |
| 20260507120342 | 53 | 11 | 1.0 | 3.0 | 0.00 | 0.00 | 0.00 | 77 | 1022.6 |
| 20260507115838 | 53 | 68 | 1.0 | 3.0 | 0.00 | 0.00 | 0.00 | 77 | 1022.6 |
| 20260507115358 | 53 | 61 | 0.0 | 1.0 | 0.00 | 0.00 | 0.00 | 78 | 1022.6 |
| 20260507114835 | 53 | 259 | 0.0 | 0.0 | 0.00 | 0.00 | 0.00 | 78 | 1022.7 |
| 20260507114348 | 53 | 259 | 0.0 | 0.0 | 0.00 | 0.00 | 0.00 | 78 | 1022.6 |
| 20260507113844 | 53 | 259 | 0.0 | 0.0 | 0.00 | 0.00 | 0.00 | 78 | 1022.6 |
| 20260507113341 | 53 | 265 | 0.0 | 1.0 | 0.00 | 0.00 | 0.00 | 78 | 1022.6 |
| 20260507112839 | 53 | 264 | 0.0 | 1.0 | 0.00 | 0.00 | 0.00 | 78 | 1022.7 |
| 20260507112358 | 53 | 271 | 0.0 | 1.0 | 0.00 | 0.00 | 0.00 | 78 | 1022.7 |
| 20260507111836 | 53 | 263 | 0.0 | 1.0 | 0.00 | 0.00 | 0.00 | 78 | 1022.7 |
| 20260507111330 | 53 | 271 | 0.0 | 1.0 | 0.00 | 0.00 | 0.00 | 77 | 1022.7 |
| 20260507110857 | 53 | 272 | 0.0 | 1.0 | 0.00 | 0.00 | 0.00 | 77 | 1022.8 |
| 20260507110354 | 53 | 276 | 0.0 | 2.0 | 0.00 | 0.00 | 0.00 | 77 | 1022.7 |
| 20260507105850 | 53 | 25 | 0.0 | 2.0 | 0.00 | 0.00 | 0.00 | 77 | 1022.8 |
| 20260507105342 | 53 | 250 | 0.0 | 5.0 | 0.00 | 0.00 | 0.00 | 77 | 1022.8 |
| 20260507104839 | 54 | 270 | 0.0 | 5.0 | 0.00 | 0.00 | 0.00 | 77 | 1022.8 |
| 20260507104337 | 54 | 270 | 1.0 | 5.0 | 0.00 | 0.00 | 0.00 | 77 | 1022.9 |
| 20260507103857 | 54 | 94 | 1.0 | 2.0 | 0.00 | 0.00 | 0.00 | 77 | 1022.9 |
| 20260507103352 | 54 | 271 | 0.0 | 3.0 | 0.00 | 0.00 | 0.00 | 78 | 1022.9 |
| 20260507102849 | 54 | 51 | 0.0 | 4.0 | 0.00 | 0.00 | 0.00 | 78 | 1022.9 |
| 20260507102407 | 54 | 92 | 0.0 | 4.0 | 0.00 | 0.00 | 0.00 | 78 | 1022.9 |
| 20260507101905 | 54 | 353 | 0.0 | 3.0 | 0.00 | 0.00 | 0.00 | 78 | 1022.9 |
| 20260507101342 | 54 | 43 | 0.0 | 3.0 | 0.00 | 0.00 | 0.00 | 77 | 1022.9 |
| 20260507100838 | 54 | 68 | 0.0 | 4.0 | 0.00 | 0.00 | 0.00 | 77 | 1023.0 |
| 20260507100354 | 54 | 297 | 0.0 | 4.0 | 0.00 | 0.00 | 0.00 | 77 | 1023.0 |
| 20260507095834 | 54 | 254 | 0.0 | 1.0 | 0.00 | 0.00 | 0.00 | 78 | 1023.1 |
| 20260507095330 | 54 | 271 | 0.0 | 2.0 | 0.00 | 0.00 | 0.00 | 78 | 1023.0 |
| 20260507094909 | 54 | 279 | 0.0 | 2.0 | 0.00 | 0.00 | 0.00 | 78 | 1023.1 |
| 20260507094352 | 54 | 278 | 0.0 | 2.0 | 0.00 | 0.00 | 0.00 | 77 | 1023.1 |
| 20260507093849 | 54 | 267 | 1.0 | 1.0 | 0.00 | 0.00 | 0.00 | 77 | 1023.3 |
| 20260507093348 | 54 | 42 | 0.0 | 1.0 | 0.00 | 0.00 | 0.00 | 77 | 1023.2 |
| 20260507092843 | 54 | 281 | 0.0 | 2.0 | 0.00 | 0.00 | 0.00 | 77 | 1023.3 |
| 20260507092340 | 55 | 276 | 0.0 | 2.0 | 0.00 | 0.00 | 0.00 | 77 | 1023.3 |
| 20260507091903 | 55 | 333 | 0.0 | 3.0 | 0.00 | 0.00 | 0.00 | 77 | 1023.4 |
| 20260507091339 | 55 | 265 | 0.0 | 3.0 | 0.00 | 0.00 | 0.00 | 78 | 1023.4 |
| 20260507090835 | 55 | 262 | 1.0 | 3.0 | 0.00 | 0.00 | 0.00 | 78 | 1023.5 |
| 20260507090354 | 55 | 276 | 0.0 | 2.0 | 0.00 | 0.00 | 0.00 | 78 | 1023.4 |
| 20260507085851 | 55 | 46 | 0.0 | 2.0 | 0.00 | 0.00 | 0.00 | 78 | 1023.4 |
| 20260507085348 | 55 | 262 | 0.0 | 1.0 | 0.00 | 0.00 | 0.00 | 79 | 1023.4 |
| 20260507084905 | 55 | 271 | 0.0 | 2.0 | 0.00 | 0.00 | 0.00 | 78 | 1023.3 |
| 20260507084341 | 55 | 255 | 1.0 | 2.0 | 0.00 | 0.00 | 0.00 | 79 | 1023.4 |
| 20260507083848 | 55 | 257 | 1.0 | 2.0 | 0.00 | 0.00 | 0.00 | 79 | 1023.4 |
| 20260507083402 | 55 | 238 | 0.0 | 1.0 | 0.00 | 0.00 | 0.00 | 79 | 1023.4 |
| 20260507082841 | 55 | 261 | 0.0 | 3.0 | 0.00 | 0.00 | 0.00 | 79 | 1023.5 |
| 20260507082338 | 55 | 265 | 0.0 | 3.0 | 0.00 | 0.00 | 0.00 | 79 | 1023.5 |
| 20260507081836 | 55 | 282 | 0.0 | 1.0 | 0.00 | 0.00 | 0.00 | 79 | 1023.5 |
| 20260507081333 | 55 | 289 | 0.0 | 1.0 | 0.00 | 0.00 | 0.00 | 79 | 1023.5 |
| 20260507080849 | 55 | 17 | 0.0 | 1.0 | 0.00 | 0.00 | 0.00 | 79 | 1023.5 |
| 20260507080348 | 55 | 283 | 0.0 | 0.0 | 0.00 | 0.00 | 0.00 | 79 | 1023.5 |
| 20260507075855 | 55 | 285 | 0.0 | 0.0 | 0.00 | 0.00 | 0.00 | 79 | 1023.5 |
| 20260507075352 | 55 | 286 | 0.0 | 0.0 | 0.00 | 0.00 | 0.00 | 79 | 1023.5 |
| 20260507074849 | 55 | 299 | 0.0 | 0.0 | 0.00 | 0.00 | 0.00 | 79 | 1023.5 |
| 20260507074346 | 55 | 359 | 0.0 | 1.0 | 0.00 | 0.00 | 0.00 | 79 | 1023.5 |
| 20260507073844 | 55 | 358 | 0.0 | 2.0 | 0.00 | 0.00 | 0.00 | 79 | 1023.5 |
| 20260507073338 | 55 | 269 | 0.0 | 2.0 | 0.00 | 0.00 | 0.00 | 79 | 1023.5 |
| 20260507072834 | 55 | 69 | 0.0 | 2.0 | 0.00 | 0.00 | 0.00 | 79 | 1023.5 |
| 20260507072354 | 55 | 98 | 0.0 | 3.0 | 0.00 | 0.00 | 0.00 | 79 | 1023.5 |
| 20260507071853 | 55 | 34 | 1.0 | 3.0 | 0.00 | 0.00 | 0.00 | 79 | 1023.5 |
| 20260507071330 | 55 | 262 | 0.0 | 1.0 | 0.00 | 0.00 | 0.00 | 79 | 1023.4 |
| 20260507070847 | 55 | 262 | 0.0 | 3.0 | 0.00 | 0.00 | 0.00 | 79 | 1023.4 |
| 20260507070344 | 55 | 259 | 1.0 | 3.0 | 0.00 | 0.00 | 0.00 | 79 | 1023.5 |
| 20260507065838 | 55 | 275 | 1.0 | 3.0 | 0.00 | 0.00 | 0.00 | 79 | 1023.5 |
| 20260507065334 | 55 | 268 | 0.0 | 3.0 | 0.00 | 0.00 | 0.00 | 78 | 1023.5 |
| 20260507064847 | 55 | 296 | 0.0 | 3.0 | 0.00 | 0.00 | 0.00 | 78 | 1023.5 |
| 20260507064413 | 55 | 271 | 0.0 | 3.0 | 0.00 | 0.00 | 0.00 | 78 | 1023.5 |
| 20260507063848 | 55 | 17 | 0.0 | 5.0 | 0.00 | 0.00 | 0.00 | 78 | 1023.5 |
| 20260507063345 | 56 | 278 | 1.0 | 5.0 | 0.00 | 0.00 | 0.00 | 78 | 1023.5 |
| 20260507062904 | 56 | 91 | 0.0 | 5.0 | 0.00 | 0.00 | 0.00 | 78 | 1023.6 |
| 20260507062347 | 56 | 266 | 1.0 | 5.0 | 0.00 | 0.00 | 0.00 | 78 | 1023.6 |
| 20260507061842 | 56 | 290 | 1.0 | 4.0 | 0.00 | 0.00 | 0.00 | 78 | 1023.6 |
| 20260507061340 | 56 | 290 | 1.0 | 7.0 | 0.00 | 0.00 | 0.00 | 78 | 1023.6 |
| 20260507060839 | 56 | 91 | 2.0 | 7.0 | 0.00 | 0.00 | 0.00 | 78 | 1023.6 |
| 20260507060358 | 56 | 257 | 0.0 | 4.0 | 0.00 | 0.00 | 0.00 | 78 | 1023.6 |
| 20260507055849 | 56 | 23 | 1.0 | 8.0 | 0.00 | 0.00 | 0.00 | 78 | 1023.6 |
| 20260507055345 | 56 | 253 | 1.0 | 8.0 | 0.00 | 0.00 | 0.00 | 78 | 1023.5 |
| 20260507054842 | 56 | 70 | 2.0 | 4.0 | 0.00 | 0.00 | 0.00 | 77 | 1023.5 |
| 20260507054340 | 57 | 230 | 0.0 | 3.0 | 0.00 | 0.00 | 0.00 | 77 | 1023.4 |
| 20260507053839 | 57 | 42 | 0.0 | 2.0 | 0.00 | 0.00 | 0.00 | 77 | 1023.5 |
| 20260507053336 | 57 | 266 | 0.0 | 2.0 | 0.00 | 0.00 | 0.00 | 77 | 1023.5 |
| 20260507052833 | 57 | 235 | 0.0 | 4.0 | 0.00 | 0.00 | 0.00 | 77 | 1023.4 |
| 20260507052330 | 57 | 38 | 0.0 | 3.0 | 0.00 | 0.00 | 0.00 | 77 | 1023.4 |
| 20260507051850 | 57 | 255 | 1.0 | 3.0 | 0.00 | 0.00 | 0.00 | 77 | 1023.5 |
| 20260507051349 | 57 | 92 | 2.0 | 6.0 | 0.00 | 0.00 | 0.00 | 77 | 1023.4 |
| 20260507050905 | 57 | 282 | 2.0 | 6.0 | 0.00 | 0.00 | 0.00 | 77 | 1023.4 |
| 20260507050343 | 57 | 261 | 1.0 | 8.0 | 0.00 | 0.00 | 0.00 | 77 | 1023.4 |
| 20260507045840 | 57 | 274 | 3.0 | 8.0 | 0.00 | 0.00 | 0.00 | 76 | 1023.3 |
| 20260507045358 | 57 | 271 | 2.0 | 8.0 | 0.00 | 0.00 | 0.00 | 76 | 1023.4 |
| 20260507044836 | 57 | 18 | 1.0 | 4.0 | 0.00 | 0.00 | 0.00 | 76 | 1023.5 |
| 20260507044332 | 58 | 143 | 1.0 | 7.0 | 0.00 | 0.00 | 0.00 | 76 | 1023.4 |
| 20260507043830 | 58 | 314 | 1.0 | 7.0 | 0.00 | 0.00 | 0.00 | 76 | 1023.3 |
| 20260507043345 | 58 | 248 | 3.0 | 7.0 | 0.00 | 0.00 | 0.00 | 76 | 1023.3 |
| 20260507042850 | 58 | 266 | 2.0 | 9.0 | 0.00 | 0.00 | 0.00 | 76 | 1023.1 |
| 20260507042347 | 58 | 198 | 1.0 | 9.0 | 0.00 | 0.00 | 0.00 | 76 | 1023.1 |
| 20260507041845 | 58 | 151 | 2.0 | 9.0 | 0.00 | 0.00 | 0.00 | 75 | 1023.1 |
| 20260507041333 | 59 | 248 | 1.0 | 10.0 | 0.00 | 0.00 | 0.00 | 75 | 1023.1 |
| 20260507040848 | 59 | 325 | 3.0 | 10.0 | 0.00 | 0.00 | 0.00 | 75 | 1023.0 |
| 20260507040345 | 59 | 7 | 1.0 | 4.0 | 0.00 | 0.00 | 0.00 | 76 | 1022.9 |
| 20260507035843 | 59 | 60 | 1.0 | 7.0 | 0.00 | 0.00 | 0.00 | 76 | 1022.8 |
| 20260507035341 | 59 | 281 | 2.0 | 7.0 | 0.00 | 0.00 | 0.00 | 76 | 1022.7 |
| 20260507034907 | 59 | 258 | 1.0 | 7.0 | 0.00 | 0.00 | 0.00 | 76 | 1022.6 |
| 20260507034404 | 59 | 313 | 1.0 | 5.0 | 0.00 | 0.00 | 0.00 | 76 | 1022.5 |
| 20260507033907 | 59 | 241 | 1.0 | 4.0 | 0.00 | 0.00 | 0.00 | 76 | 1022.5 |
| 20260507033341 | 59 | 31 | 2.0 | 11.0 | 0.00 | 0.00 | 0.00 | 76 | 1022.5 |
| 20260507032838 | 60 | 263 | 1.0 | 11.0 | 0.00 | 0.00 | 0.00 | 76 | 1022.4 |
| 20260507032357 | 60 | 58 | 2.0 | 6.0 | 0.00 | 0.00 | 0.00 | 76 | 1022.4 |
| 20260507031834 | 60 | 297 | 1.0 | 6.0 | 0.00 | 0.00 | 0.00 | 75 | 1022.2 |
| 20260507031330 | 60 | 266 | 1.0 | 5.0 | 0.00 | 0.00 | 0.00 | 75 | 1022.2 |
| 20260507030847 | 61 | 269 | 0.0 | 5.0 | 0.00 | 0.00 | 0.00 | 75 | 1022.2 |
| 20260507030344 | 61 | 234 | 1.0 | 5.0 | 0.00 | 0.00 | 0.00 | 74 | 1022.1 |
| 20260507025906 | 62 | 264 | 0.0 | 4.0 | 0.00 | 0.00 | 0.00 | 74 | 1022.0 |
| 20260507025337 | 62 | 292 | 0.0 | 6.0 | 0.00 | 0.00 | 0.00 | 74 | 1022.0 |
| 20260507024834 | 62 | 30 | 2.0 | 6.0 | 0.00 | 0.00 | 0.00 | 73 | 1022.0 |
| 20260507024353 | 63 | 263 | 1.0 | 4.0 | 0.00 | 0.00 | 0.00 | 72 | 1021.8 |
| 20260507023851 | 63 | 44 | 1.0 | 4.0 | 0.00 | 0.00 | 0.00 | 72 | 1021.8 |
| 20260507023348 | 63 | 74 | 1.0 | 5.0 | 0.00 | 0.00 | 0.00 | 72 | 1021.8 |
| 20260507022845 | 63 | 151 | 1.0 | 6.0 | 0.00 | 0.00 | 0.00 | 72 | 1021.8 |
| 20260507022342 | 63 | 75 | 0.0 | 10.0 | 0.00 | 0.00 | 0.00 | 72 | 1021.8 |
| 20260507021840 | 63 | 20 | 2.0 | 10.0 | 0.00 | 0.00 | 0.00 | 71 | 1021.7 |
| 20260507021339 | 64 | 231 | 1.0 | 9.0 | 0.00 | 0.00 | 0.00 | 71 | 1021.7 |
| 20260507020834 | 64 | 320 | 1.0 | 9.0 | 0.00 | 0.00 | 0.00 | 71 | 1021.9 |
| 20260507020331 | 64 | 45 | 2.0 | 7.0 | 0.00 | 0.00 | 0.00 | 70 | 1021.8 |
| 20260507015842 | 65 | 74 | 2.0 | 8.0 | 0.00 | 0.00 | 0.00 | 70 | 1021.9 |
| 20260507015338 | 65 | 47 | 2.0 | 8.0 | 0.00 | 0.00 | 0.00 | 70 | 1021.9 |
| 20260507014905 | 65 | 56 | 2.0 | 5.0 | 0.00 | 0.00 | 0.00 | 69 | 1022.0 |
| 20260507014402 | 66 | 267 | 1.0 | 6.0 | 0.00 | 0.00 | 0.00 | 70 | 1021.9 |
| 20260507013908 | 66 | 25 | 2.0 | 8.0 | 0.00 | 0.00 | 0.00 | 69 | 1021.9 |
| 20260507013343 | 66 | 282 | 1.0 | 5.0 | 0.00 | 0.00 | 0.00 | 69 | 1021.9 |
| 20260507012840 | 67 | 269 | 1.0 | 4.0 | 0.00 | 0.00 | 0.00 | 69 | 1021.8 |
| 20260507012339 | 67 | 326 | 1.0 | 4.0 | 0.00 | 0.00 | 0.00 | 68 | 1021.7 |
| 20260507011858 | 67 | 58 | 1.0 | 9.0 | 0.00 | 0.00 | 0.00 | 69 | 1021.8 |
| 20260507011351 | 67 | 22 | 3.0 | 7.0 | 0.00 | 0.00 | 0.00 | 69 | 1021.7 |
| 20260507010830 | 68 | 319 | 2.0 | 8.0 | 0.00 | 0.00 | 0.00 | 68 | 1021.8 |
| 20260507010346 | 68 | 53 | 1.0 | 5.0 | 0.00 | 0.00 | 0.00 | 69 | 1021.8 |